(187114) = 2004 FU82 = 2005 QK69

Discovered at Siding Spring on 2005-08-28 by Siding Spring Survey.

Orbit

Orbit type: Main Belt

Note: WebGL enabled browser required.

epoch2023-09-13.0
epoch JD2460200.5
perihelion date2023-03-25.78983
perihelion JD2460029.28983
argument of perihelion (°)207.57719
ascending node (°)93.81407
inclination (°)7.84409
eccentricity0.1167197
perihelion distance (AU)2.0645164
Tisserand w.r.t. Jupiter3.5
ΔV w.r.t. Earth (km/sec)9.2
semimajor axis (AU)2.3373287
mean anomaly (°)47.22302
mean daily motion (°/day)0.27581900
aphelion distance (AU)2.610
period (years)3.57
P-vector [x]0.51655735
P-vector [y]-0.75832262
P-vector [z]-0.39763717
Q-vector [x]0.84535477
Q-vector [y]0.52551146
Q-vector [z]0.09598447
absolute magnitude16.75
phase slope0.15
uncertainty0
referenceMPEC 2024-A48
observations used528
oppositions14
arc length (days)7204
first opposition used2004
last opposition used2023
residual rms (arc-secs)0.67
perturbers coarse indicatorM-v
perturbers precise indicator003Ek
first observation date used2004-03-17.0
last observation date used2023-12-07.0
computer nameMPCLINUX
Minimum Orbit Intersection Distances (in AU)
for orbit epoch: 2460200.5, reference: E2024-A48
Mercury1.61871
Venus1.33664
Earth1.05157
Mars0.64143
Jupiter2.56049
Saturn6.47354
Uranus15.9152
Neptune27.4458

Observations

536 total observations over interval: 2004 03 17.31279 – 2023 12 07.263339
These data are available for download (format description).

Date (UT) J2000 RA J2000 Dec Magn Location Ref
2004 03 17.31279 11 48 40.56 +15 12 32.7 19.2   704 – Lincoln Laboratory ETS, New Mexico MPS 104007
2004 03 17.33545 11 48 39.15 +15 12 42.2 19.7   704 – Lincoln Laboratory ETS, New Mexico MPS 104007
2004 03 17.34672 11 48 38.58 +15 12 46.2 19.9   704 – Lincoln Laboratory ETS, New Mexico MPS 104007
2004 03 23.28943 11 42 55.46 +15 48 26.2 19.4   704 – Lincoln Laboratory ETS, New Mexico MPS 104007
2004 03 23.30280 11 42 54.73 +15 48 30.0 19.7   704 – Lincoln Laboratory ETS, New Mexico MPS 104007
2004 03 23.31413 11 42 54.07 +15 48 33.0 19.6   704 – Lincoln Laboratory ETS, New Mexico MPS 104007
2004 03 23.32518 11 42 53.30 +15 48 37.5 20.3   704 – Lincoln Laboratory ETS, New Mexico MPS 104007
2004 03 23.33720 11 42 52.65 +15 48 40.2 20.4   704 – Lincoln Laboratory ETS, New Mexico MPS 104007
2004 03 27.32161 11 39 09.44 +16 08 27.0 20.4 V 691 – Steward Observatory, Kitt Peak-Spacewatch MPS 141754
2004 03 27.35076 11 39 07.79 +16 08 34.8 20.4 V 691 – Steward Observatory, Kitt Peak-Spacewatch MPS 141754
2004 03 27.37749 11 39 06.26 +16 08 42.0 20.3 V 691 – Steward Observatory, Kitt Peak-Spacewatch MPS 141754
2005 07 29.46290 23 28 14.54 -15 25 00.7 19.4   644 – Palomar Mountain/NEAT MPS 141754
2005 07 29.47350 23 28 14.48 -15 25 05.2 19.5   644 – Palomar Mountain/NEAT MPS 141754
2005 07 29.48528 23 28 14.41 -15 25 10.5 19.4   644 – Palomar Mountain/NEAT MPS 141754
2005 08 06.71656 23 26 36.74 -16 30 57.5 19.5 V E12 – Siding Spring Survey MPS 141754
2005 08 06.72751 23 26 36.49 -16 31 03.4 19.7 V E12 – Siding Spring Survey MPS 141754
2005 08 06.73833 23 26 36.24 -16 31 09.0 19.9 V E12 – Siding Spring Survey MPS 141754
2005 08 06.74927 23 26 35.98 -16 31 13.9 19.5 V E12 – Siding Spring Survey MPS 141754
2005 08 28.68795 23 12 47.08 -19 44 14.0 19.0 V E12 – Siding Spring Survey MPS 140321
2005 08 28.69679 23 12 46.51 -19 44 18.0 18.8 V E12 – Siding Spring Survey MPS 140321
2005 08 28.70554 23 12 46.15 -19 44 23.1 19.7 V E12 – Siding Spring Survey MPS 140321
2005 08 28.71432 23 12 45.64 -19 44 26.3 19.1 V E12 – Siding Spring Survey MPS 140321
2005 08 30.29753 23 11 23.90 -19 57 15.2 18.4 R 699 – Lowell Observatory-LONEOS MPS 140321
2005 08 30.31568 23 11 22.84 -19 57 23.7   699 – Lowell Observatory-LONEOS MPS 140321
2005 08 30.33389 23 11 21.76 -19 57 32.3   699 – Lowell Observatory-LONEOS MPS 140321
2005 08 30.35216 23 11 20.77 -19 57 40.4   699 – Lowell Observatory-LONEOS MPS 140321
2005 09 26.21086 22 49 06.42 -22 01 06.4 19.4 V 703 – Catalina Sky Survey MPS 142709
2005 09 26.21882 22 49 06.16 -22 01 03.6 19.6 V 703 – Catalina Sky Survey MPS 142709
2005 09 26.22684 22 49 05.88 -22 01 04.9 19.6 V 703 – Catalina Sky Survey MPS 142709
2005 09 26.23482 22 49 05.26 -22 01 07.8 20.0 V 703 – Catalina Sky Survey MPS 142709
2005 10 04.18831 22 45 01.08 -21 58 09.7 19.8 R 644 – Palomar Mountain/NEAT MPS 144043
2005 10 04.21196 22 45 00.47 -21 58 08.1 19.6 R 644 – Palomar Mountain/NEAT MPS 144043
2005 10 04.23292 22 44 59.88 -21 58 06.1 20.1 R 644 – Palomar Mountain/NEAT MPS 144043
2006 10 22.45257 07 52 52.03 +20 50 40.2 21.8 V G96 – Mt. Lemmon Survey MPS 184094
2006 10 22.45982 07 52 52.42 +20 50 40.1 21.9 V G96 – Mt. Lemmon Survey MPS 184094
2006 10 22.46691 07 52 52.75 +20 50 40.3 21.9 V G96 – Mt. Lemmon Survey MPS 184094
2006 10 22.47391 07 52 53.11 +20 50 40.8 21.9 V G96 – Mt. Lemmon Survey MPS 184094
2006 11 15.38789 08 06 53.64 +21 07 35.2 21.6 V G96 – Mt. Lemmon Survey MPS 187026
2006 11 15.39631 08 06 53.82 +21 07 35.6 21.7 V G96 – Mt. Lemmon Survey MPS 187026
2006 11 15.40477 08 06 53.92 +21 07 36.9 21.6 V G96 – Mt. Lemmon Survey MPS 187026
2006 11 15.41309 08 06 54.07 +21 07 37.7 21.4 V G96 – Mt. Lemmon Survey MPS 187026
2006 11 27.36218 08 08 16.08 +21 37 52.3 20.5 V G96 – Mt. Lemmon Survey MPS 190509
2006 11 27.36836 08 08 16.00 +21 37 53.2 21.0 V G96 – Mt. Lemmon Survey MPS 190509
2006 11 27.37479 08 08 15.97 +21 37 54.5 21.0 V G96 – Mt. Lemmon Survey MPS 190509
2006 11 27.38096 08 08 15.93 +21 37 55.8 21.3 V G96 – Mt. Lemmon Survey MPS 190509
2006 12 15.42882 08 02 02.40 +22 54 32.4   691 – Steward Observatory, Kitt Peak-Spacewatch MPS 192232
2006 12 15.44615 08 02 01.78 +22 54 37.6   691 – Steward Observatory, Kitt Peak-Spacewatch MPS 192232
2006 12 15.46349 08 02 01.07 +22 54 43.0   691 – Steward Observatory, Kitt Peak-Spacewatch MPS 192232
2006 12 24.33838 07 55 22.08 +23 43 07.7 20.9 V 691 – Steward Observatory, Kitt Peak-Spacewatch MPS 192232
2006 12 24.35572 07 55 21.10 +23 43 13.6 20.8 V 691 – Steward Observatory, Kitt Peak-Spacewatch MPS 192232
2006 12 24.37305 07 55 20.18 +23 43 19.3 20.8 V 691 – Steward Observatory, Kitt Peak-Spacewatch MPS 192232
2007 01 09.15770 07 39 17.52 +25 13 41.1   691 – Steward Observatory, Kitt Peak-Spacewatch MPS 195530
2007 01 09.17503 07 39 16.34 +25 13 46.8   691 – Steward Observatory, Kitt Peak-Spacewatch MPS 195530
2007 01 09.19235 07 39 15.15 +25 13 52.6   691 – Steward Observatory, Kitt Peak-Spacewatch MPS 195530
2007 01 28.17097 07 18 28.80 +26 42 53.7 19.8 V G96 – Mt. Lemmon Survey MPS 198145
2007 01 28.17785 07 18 28.36 +26 42 55.8 21.0 V G96 – Mt. Lemmon Survey MPS 198145
2007 01 28.18473 07 18 27.93 +26 42 57.1 20.5 V G96 – Mt. Lemmon Survey MPS 198145
2007 01 28.19155 07 18 27.50 +26 42 58.5 20.3 V G96 – Mt. Lemmon Survey MPS 198145
2007 02 09.09368 07 08 23.38 +27 18 29.1   691 – Steward Observatory, Kitt Peak-Spacewatch MPS 198713
2007 02 09.11005 07 08 22.66 +27 18 31.1   691 – Steward Observatory, Kitt Peak-Spacewatch MPS 198713
2007 02 09.12645 07 08 21.97 +27 18 33.8   691 – Steward Observatory, Kitt Peak-Spacewatch MPS 198713
2008 04 04.46099 15 51 26.51 -09 52 51.3 20.1 V 691 – Steward Observatory, Kitt Peak-Spacewatch MPS 244703
2008 04 04.47862 15 51 26.32 -09 52 49.2 20.2 V 691 – Steward Observatory, Kitt Peak-Spacewatch MPS 244703
2008 04 04.49625 15 51 26.13 -09 52 46.9 20.3 V 691 – Steward Observatory, Kitt Peak-Spacewatch MPS 244703
2008 04 08.43905 15 50 35.52 -09 44 37.6 20.0 V 691 – Steward Observatory, Kitt Peak-Spacewatch MPS 245754
2008 04 08.45670 15 50 35.18 -09 44 34.7 20.1 V 691 – Steward Observatory, Kitt Peak-Spacewatch MPS 245754
2008 04 08.47435 15 50 34.84 -09 44 32.5 20.1 V 691 – Steward Observatory, Kitt Peak-Spacewatch MPS 245754
2008 04 12.46129 15 49 12.72 -09 35 50.3 19.9 V 691 – Steward Observatory, Kitt Peak-Spacewatch MPS 246756
2008 04 12.47891 15 49 12.24 -09 35 47.9 20.0 V 691 – Steward Observatory, Kitt Peak-Spacewatch MPS 246756
2008 04 12.49654 15 49 11.78 -09 35 45.9 20.1 V 691 – Steward Observatory, Kitt Peak-Spacewatch MPS 246756
2008 04 30.25112 15 37 26.22 -08 57 31.6 19.7 V 691 – Steward Observatory, Kitt Peak-Spacewatch MPS 248139
2008 04 30.26874 15 37 25.24 -08 57 29.6 19.6 V 691 – Steward Observatory, Kitt Peak-Spacewatch MPS 248139
2008 04 30.28389 15 37 24.40 -08 57 27.9 19.5 V 691 – Steward Observatory, Kitt Peak-Spacewatch MPS 248139
2008 04 30.29866 15 37 23.61 -08 57 26.8 19.3   704 – Lincoln Laboratory ETS, New Mexico MPS 248139
2008 04 30.30873 15 37 23.06 -08 57 25.4 19.7   704 – Lincoln Laboratory ETS, New Mexico MPS 248139
2008 04 30.32893 15 37 21.88 -08 57 22.3 19.5   704 – Lincoln Laboratory ETS, New Mexico MPS 248139
2008 04 30.33903 15 37 21.32 -08 57 22.1 19.5   704 – Lincoln Laboratory ETS, New Mexico MPS 248139
2008 05 05.24744 15 32 47.37 -08 48 58.7 19.7 V 691 – Steward Observatory, Kitt Peak-Spacewatch MPS 248969
2008 05 05.26511 15 32 46.32 -08 48 57.6 19.7 V 691 – Steward Observatory, Kitt Peak-Spacewatch MPS 248969
2008 05 05.28277 15 32 45.24 -08 48 55.4 19.5 V 691 – Steward Observatory, Kitt Peak-Spacewatch MPS 248969
2008 05 08.23136 15 29 50.40 -08 44 48.6   691 – Steward Observatory, Kitt Peak-Spacewatch MPS 248969
2008 05 08.24905 15 29 49.30 -08 44 47.5   691 – Steward Observatory, Kitt Peak-Spacewatch MPS 248969
2008 05 08.26674 15 29 48.18 -08 44 46.2   691 – Steward Observatory, Kitt Peak-Spacewatch MPS 248969
2008 05 08.30831 15 29 45.57 -08 44 43.1 18.8   704 – Lincoln Laboratory ETS, New Mexico MPS 248969
2008 05 08.31828 15 29 44.96 -08 44 41.8 19.5   704 – Lincoln Laboratory ETS, New Mexico MPS 248969
2008 05 08.33826 15 29 43.64 -08 44 40.9 19.1   704 – Lincoln Laboratory ETS, New Mexico MPS 248969
2008 05 08.34835 15 29 43.10 -08 44 39.7 19.3   704 – Lincoln Laboratory ETS, New Mexico MPS 248969
2008 05 12.30565 15 25 40.67 -08 40 31.3 19.0   704 – Lincoln Laboratory ETS, New Mexico MPS 249814
